When you browse on this site, cookies collect data to enhance your experience and personalize the content and advertising you see.
Visit our Privacy Policy to learn more. By continuing to use the site, you agree to this use of cookies and data.
  • In Hungary
  • List of Countries
  • For 7 days
  • Water Temperature
  • Satellite Maps
  • Weather Map
  • News
  • Weather Widgets
  • user-avatar
    Login

    Hourly Weather Karnal

    Today, 20 March, Wednesday

    Time Temperature Precipitation Wind Pressure Humidity
    00:00 +20°C° 0 mm 3 mps 734 mmHg 51%
    01:00 +20°C° 0 mm 3 mps 734 mmHg 50%
    02:00 +20°C° 0 mm 3 mps 734 mmHg 49%
    03:00 +19°C° 0 mm 3 mps 734 mmHg 50%
    04:00 +19°C° 0 mm 3 mps 734 mmHg 52%
    05:00 +18°C° 0 mm 2 mps 733 mmHg 56%
    06:00 +19°C° 0.1 mm 3 mps 734 mmHg 56%
    07:00 +20°C° 0.1 mm 3 mps 734 mmHg 57%
    08:00 +21°C° 0.1 mm 4 mps 735 mmHg 58%
    09:00 +25°C° 0 mm 5 mps 735 mmHg 51%
    10:00 +27°C° 0 mm 5 mps 735 mmHg 44%
    11:00 +29°C° 0 mm 5 mps 736 mmHg 35%
    12:00 +30°C° 0 mm 5 mps 736 mmHg 33%
    13:00 +32°C° 0 mm 4 mps 735 mmHg 30%
    14:00 +33°C° 0 mm 4 mps 735 mmHg 28%
    15:00 +33°C° 0 mm 3 mps 735 mmHg 31%
    16:00 +31°C° 0 mm 2 mps 735 mmHg 34%
    17:00 +26°C° 0 mm 0 mps 734 mmHg 38%
    18:00 +26°C° 0 mm 1 mps 735 mmHg 40%
    19:00 +25°C° 0 mm 1 mps 735 mmHg 41%
    20:00 +23°C° 0 mm 1 mps 736 mmHg 43%
    21:00 +21°C° 0 mm 2 mps 736 mmHg 46%
    22:00 +20°C° 0 mm 2 mps 736 mmHg 50%
    23:00 +19°C° 0 mm 3 mps 736 mmHg 53%

    Tomorrow, 21 March, Thursday

    Time Temperature Precipitation Wind Pressure Humidity
    00:00 +19°C° 0 mm 3 mps 736 mmHg 52%
    01:00 +18°C° 0 mm 2 mps 736 mmHg 51%
    02:00 +18°C° 0 mm 2 mps 736 mmHg 51%
    03:00 +18°C° 0 mm 2 mps 736 mmHg 49%
    04:00 +18°C° 0 mm 2 mps 736 mmHg 48%
    05:00 +17°C° 0 mm 2 mps 736 mmHg 47%
    06:00 +19°C° 0 mm 2 mps 736 mmHg 45%
    07:00 +21°C° 0 mm 1 mps 737 mmHg 44%
    08:00 +22°C° 0 mm 1 mps 738 mmHg 43%
    09:00 +25°C° 0 mm 1 mps 738 mmHg 37%
    10:00 +27°C° 0 mm 1 mps 738 mmHg 32%
    11:00 +29°C° 0 mm 2 mps 738 mmHg 27%
    12:00 +30°C° 0 mm 2 mps 738 mmHg 25%
    13:00 +31°C° 0 mm 2 mps 737 mmHg 23%
    14:00 +32°C° 0 mm 2 mps 737 mmHg 21%
    15:00 +31°C° 0 mm 2 mps 737 mmHg 25%
    16:00 +30°C° 0 mm 2 mps 736 mmHg 29%
    17:00 +29°C° 0 mm 2 mps 736 mmHg 33%
    18:00 +27°C° 0 mm 2 mps 736 mmHg 32%
    19:00 +25°C° 0 mm 2 mps 737 mmHg 32%
    20:00 +24°C° 0 mm 2 mps 737 mmHg 31%
    21:00 +21°C° 0 mm 2 mps 737 mmHg 37%
    22:00 +20°C° 0 mm 3 mps 737 mmHg 43%
    23:00 +19°C° 0 mm 3 mps 737 mmHg 49%

    Day after tomorrow, 22 March, Friday

    Time Temperature Precipitation Wind Pressure Humidity
    00:00 +19°C° 0 mm 3 mps 737 mmHg 50%
    01:00 +18°C° 0 mm 3 mps 737 mmHg 52%
    02:00 +18°C° 0 mm 3 mps 737 mmHg 53%
    03:00 +18°C° 0 mm 3 mps 737 mmHg 54%
    04:00 +17°C° 0 mm 2 mps 737 mmHg 55%
    05:00 +17°C° 0 mm 2 mps 736 mmHg 57%
    06:00 +18°C° 0 mm 2 mps 737 mmHg 55%
    07:00 +19°C° 0 mm 3 mps 738 mmHg 53%
    08:00 +20°C° 0 mm 3 mps 738 mmHg 51%
    09:00 +22°C° 0 mm 3 mps 739 mmHg 44%
    10:00 +26°C° 0 mm 3 mps 739 mmHg 37%
    11:00 +29°C° 0 mm 3 mps 739 mmHg 29%
    12:00 +30°C° 0 mm 4 mps 739 mmHg 27%
    13:00 +30°C° 0 mm 4 mps 738 mmHg 24%
    14:00 +32°C° 0 mm 5 mps 737 mmHg 22%
    15:00 +30°C° 0 mm 5 mps 737 mmHg 25%
    16:00 +29°C° 0 mm 4 mps 737 mmHg 29%
    17:00 +28°C° 0 mm 4 mps 736 mmHg 33%
    18:00 +26°C° 0 mm 4 mps 737 mmHg 35%
    19:00 +23°C° 0 mm 4 mps 737 mmHg 37%
    20:00 +21°C° 0 mm 4 mps 738 mmHg 39%
    21:00 +20°C° 0 mm 4 mps 738 mmHg 41%
    22:00 +20°C° 0 mm 4 mps 738 mmHg 43%
    23:00 +19°C° 0 mm 4 mps 738 mmHg 45%

    23 March, Saturday

    Time Temperature Precipitation Wind Pressure Humidity
    00:00 +18°C° 0 mm 4 mps 737 mmHg 47%
    01:00 +17°C° 0 mm 4 mps 737 mmHg 49%
    02:00 +17°C° 0 mm 4 mps 737 mmHg 51%
    03:00 +15°C° 0 mm 4 mps 737 mmHg 50%
    04:00 +15°C° 0 mm 4 mps 737 mmHg 48%
    05:00 +15°C° 0 mm 4 mps 736 mmHg 47%
    06:00 +17°C° 0 mm 4 mps 737 mmHg 43%
    07:00 +19°C° 0 mm 4 mps 737 mmHg 39%
    08:00 +21°C° 0 mm 5 mps 738 mmHg 35%
    09:00 +23°C° 0 mm 5 mps 738 mmHg 29%
    10:00 +27°C° 0 mm 6 mps 738 mmHg 24%
    11:00 +30°C° 0 mm 7 mps 739 mmHg 19%
    12:00 +32°C° 0 mm 7 mps 738 mmHg 19%
    13:00 +32°C° 0 mm 7 mps 737 mmHg 18%
    14:00 +33°C° 0 mm 8 mps 737 mmHg 17%
    15:00 +32°C° 0 mm 7 mps 736 mmHg 21%
    16:00 +29°C° 0 mm 6 mps 736 mmHg 24%
    17:00 +28°C° 0 mm 6 mps 736 mmHg 28%
    18:00 +26°C° 0 mm 6 mps 736 mmHg 29%
    19:00 +24°C° 0 mm 6 mps 737 mmHg 29%
    20:00 +22°C° 0 mm 6 mps 737 mmHg 30%
    21:00 +22°C° 0 mm 6 mps 737 mmHg 36%
    22:00 +21°C° 0 mm 5 mps 737 mmHg 42%
    23:00 +20°C° 0 mm 5 mps 737 mmHg 47%

    24 March, Sunday

    Time Temperature Precipitation Wind Pressure Humidity
    00:00 +19°C° 0 mm 4 mps 737 mmHg 51%
    01:00 +19°C° 0 mm 4 mps 736 mmHg 55%
    02:00 +18°C° 0 mm 4 mps 736 mmHg 58%
    03:00 +18°C° 0 mm 4 mps 736 mmHg 56%
    04:00 +17°C° 0 mm 4 mps 735 mmHg 54%
    05:00 +17°C° 0 mm 4 mps 735 mmHg 52%
    06:00 +17°C° 0 mm 5 mps 736 mmHg 47%
    07:00 +20°C° 0 mm 5 mps 736 mmHg 43%
    08:00 +21°C° 0 mm 5 mps 737 mmHg 38%
    09:00 +24°C° 0 mm 6 mps 737 mmHg 33%
    10:00 +28°C° 0 mm 6 mps 737 mmHg 28%
    11:00 +32°C° 0 mm 6 mps 737 mmHg 23%
    12:00 +33°C° 0 mm 6 mps 736 mmHg 21%
    13:00 +34°C° 0 mm 7 mps 736 mmHg 19%
    14:00 +34°C° 0 mm 7 mps 735 mmHg 17%
    15:00 +33°C° 0 mm 6 mps 735 mmHg 20%
    16:00 +32°C° 0 mm 6 mps 735 mmHg 23%
    17:00 +30°C° 0 mm 5 mps 734 mmHg 26%
    18:00 +28°C° 0 mm 5 mps 735 mmHg 27%
    19:00 +26°C° 0 mm 5 mps 735 mmHg 28%
    20:00 +23°C° 0 mm 5 mps 736 mmHg 29%
    21:00 +22°C° 0 mm 5 mps 736 mmHg 31%
    22:00 +22°C° 0 mm 4 mps 736 mmHg 33%
    23:00 +21°C° 0 mm 4 mps 736 mmHg 35%

    25 March, Monday

    Time Temperature Precipitation Wind Pressure Humidity
    00:00 +21°C° 0 mm 4 mps 736 mmHg 37%
    01:00 +21°C° 0 mm 4 mps 736 mmHg 38%
    02:00 +20°C° 0 mm 4 mps 735 mmHg 40%
    03:00 +20°C° 0 mm 3 mps 735 mmHg 41%
    04:00 +19°C° 0 mm 3 mps 735 mmHg 42%
    05:00 +19°C° 0 mm 3 mps 735 mmHg 43%
    06:00 +20°C° 0 mm 3 mps 736 mmHg 40%
    07:00 +22°C° 0 mm 3 mps 736 mmHg 37%
    08:00 +24°C° 0 mm 3 mps 737 mmHg 34%
    09:00 +27°C° 0 mm 3 mps 737 mmHg 29%
    10:00 +29°C° 0 mm 4 mps 737 mmHg 24%
    11:00 +32°C° 0 mm 4 mps 737 mmHg 19%
    12:00 +33°C° 0 mm 4 mps 737 mmHg 18%
    13:00 +35°C° 0 mm 4 mps 736 mmHg 17%
    14:00 +36°C° 0 mm 4 mps 736 mmHg 15%
    15:00 +35°C° 0 mm 3 mps 736 mmHg 19%
    16:00 +34°C° 0 mm 3 mps 735 mmHg 22%
    17:00 +32°C° 0 mm 2 mps 735 mmHg 26%
    18:00 +30°C° 0 mm 2 mps 736 mmHg 27%
    19:00 +27°C° 0 mm 3 mps 736 mmHg 28%
    20:00 +25°C° 0 mm 3 mps 737 mmHg 30%
    21:00 +24°C° 0 mm 3 mps 737 mmHg 32%
    22:00 +22°C° 0 mm 3 mps 737 mmHg 34%
    23:00 +21°C° 0 mm 3 mps 737 mmHg 37%
    Show more